Location: Miss�
(46.9484°N, 0.1922°W)
Time: 06:56:38
(UTC+00:00)

SJ-11-01 - Pass Details

Date: 02 March 2021
Orbit: 685 x 700 km, 98.0° (Epoch: 13 April)

Event Time Altitude Azimuth Distance (km) Brightness Sun altitude
Rises 18:15:51 0° 151° (SSE) 3,043 7.4 -5.6°
Reaches altitude 10° 18:18:07 10° 147° (SSE) 2,133 6.5 -5.9°
Maximum altitude 18:22:39 53° 71° (ENE) 854 4.4 -6.7°
Drops below altitude 10° 18:27:13 10° 356° (N) 2,158 6.9 -7.5°
Sets 18:29:31 0° 351° (N) 3,082 7.7 -7.9°
